#timestamp,LO_Frequency,Hit,StdDev 
1512295215.0,286047000.3,N
1512295215.9,286047000.3,N
1512295235.8,286047000.8,N
1512295255.6,286046998.4,N
1512295275.4,286047001.0,N
1512295295.3,286046999.9,N
1512295315.1,286047001.1,N
1512295335.9,286046998.6,N
1512295355.7,286047000.2,N
1512295375.5,286046999.8,N
1512295395.4,286047000.8,N
1512295415.2,286047000.5,N
1512295435.1,286047000.1,N
1512295436.0,286047000.1,N
1512295455.8,286047000.8,N
1512295475.6,286046999.8,N
1512295495.5,286047000.2,N
1512295515.3,286047001.2,N
1512295535.2,286046999.4,N
1512295555.9,286046998.9,N
1512295575.7,286047000.9,N
1512295595.6,286047001.1,N
1512295615.4,286047001.2,N
1512295635.2,286046999.0,N
1512295655.1,286047000.7,N
1512295656.0,286047000.7,N
1512295675.8,286046998.1,N
1512295695.7,286047000.5,N
1512295715.5,286047000.6,N
1512295735.3,286047000.6,N
1512295755.2,286047000.5,N
1512295775.0,286046999.8,N
1512295775.9,286046999.8,N
1512295795.8,286047001.2,N
1512295815.6,286046999.8,N
1512295835.4,286046998.1,N
1512295855.3,286046998.6,N
1512295875.1,286047000.5,N
1512295895.8,286047001.5,N
1512295915.7,286046999.9,N
1512295935.5,286047000.1,N
1512295955.4,286046998.4,N
1512295975.2,286047001.1,N
1512295995.0,286047000.8,N
1512295995.9,286047000.8,N
1512296015.8,286047000.0,N
1512296035.6,286046998.5,N
1512296055.4,286047000.2,N
1512296075.3,286047000.2,N
1512296095.1,286047000.5,N
1512296115.9,286047000.7,N
1512296135.7,286047000.6,N
1512296155.5,286046999.0,N
1512296175.4,286046998.8,N
1512296195.2,286046996.6,Y
1512296215.0,286046996.5,P
1512296215.9,286046996.5,N
1512296235.8,286046998.9,N
1512296255.6,286047000.7,N
1512296275.5,286047002.7,N
1512296295.3,286046999.9,N
1512296315.1,286047000.7,N
1512296335.9,286046999.7,N
1512296355.7,286047000.4,N
1512296375.5,286046998.9,N
1512296395.4,286046998.9,N
1512296415.2,286046999.0,N
1512296435.1,286047000.9,N
1512296436.0,286047000.9,N
1512296455.8,286047000.1,N
1512296475.6,286046999.8,N
1512296495.5,286047000.3,N
1512296515.3,286047000.4,N
1512296535.2,286047000.2,N
1512296555.0,286047000.2,N
1512296555.9,286047000.2,N
1512296575.8,286047000.2,N
1512296595.6,286046999.7,N
1512296615.4,286047000.3,N
1512296635.3,286047000.5,N
1512296655.1,286047001.0,N
1512296675.8,286046998.7,N
1512296695.7,286047000.9,N
1512296715.5,286047002.6,N
1512296735.4,286047004.4,Y
1512296755.2,286047002.2,P
1512296775.1,286047001.5,N
1512296776.0,286047001.5,N
1512296795.8,286047000.7,N
1512296815.6,286046999.9,N
1512296835.5,286047002.4,N
1512296855.3,286047000.5,N
1512296875.1,286047000.2,N
1512296895.9,286047001.9,N
1512296915.7,286047002.1,N
1512296935.6,286047001.4,N
1512296955.4,286047001.7,N
1512296975.2,286047002.5,N
1512296995.1,286047000.5,N
1512296996.0,286047000.5,N
1512297015.8,286046999.8,N
1512297035.7,286047000.7,N
1512297055.5,286047001.1,N
1512297075.3,286047002.7,Y
1512297095.2,286046998.8,P
1512297115.0,286046998.4,N
1512297115.9,286046998.4,N
1512297135.7,286046998.3,N
1512297155.6,286046998.5,N
1512297175.4,286047000.7,N
1512297195.3,286047000.9,N
1512297215.1,286047000.1,N
1512297216.0,286047000.1,N
1512297235.8,286047002.3,N
1512297255.7,286046999.9,N
1512297275.5,286047000.0,N
1512297295.3,286047002.5,N
1512297315.2,286047001.6,N
1512297335.0,286047002.6,N
1512297335.9,286047002.6,N
1512297355.8,286046999.7,N
1512297375.6,286047001.2,N
1512297395.4,286046998.3,N
1512297415.3,286047000.3,N
1512297435.1,286046999.8,N
1512297455.9,286046999.8,N
1512297475.7,286047000.2,N
1512297495.5,286047000.9,N
1512297515.4,286047000.2,N
1512297535.2,286047001.0,N
1512297555.0,286046998.8,N
1512297555.9,286046998.8,N
1512297575.8,286047001.2,N
1512297595.6,286047000.4,N
1512297615.5,286047007.0,Y
1512297635.3,286047015.7,P
1512297655.1,286047013.1,N
1512297675.9,286047010.2,N
1512297695.7,286047006.4,N
1512297715.5,286047005.1,N
1512297735.4,286047005.3,N
1512297755.2,286047005.9,N
1512297775.1,286047003.4,N
1512297776.0,286047003.4,N
1512297795.8,286047005.6,N
1512297815.6,286047003.3,N
1512297835.5,286047004.1,N
1512297855.3,286047003.6,N
1512297875.1,286047003.2,N
1512297895.9,286047002.9,N
1512297915.7,286047003.3,N
1512297935.6,286047003.0,N
1512297955.4,286047001.3,N
1512297975.2,286047003.5,N
1512297995.1,286047001.3,N
1512297996.0,286047001.3,N
1512298015.8,286047001.8,N
1512298035.6,286047000.1,N
1512298055.5,286047000.7,N
1512298075.3,286046998.2,N
1512298095.2,286047002.3,N
1512298115.9,286047001.3,N
1512298135.7,286047001.5,N
1512298155.6,286047000.6,N
1512298175.4,286047001.0,N
1512298195.3,286047000.2,N
1512298215.1,286047000.6,N
1512298216.0,286047000.6,N
1512298235.8,286047000.9,N
1512298255.7,286046998.3,N
1512298275.5,286047001.1,N
1512298295.3,286047001.0,N
1512298315.2,286047000.8,N
1512298335.0,286047001.0,N
1512298335.9,286047001.0,N
1512298355.8,286047000.4,N
1512298375.6,286047000.8,N
1512298395.4,286046998.1,N
1512298415.3,286047000.1,N
1512298435.1,286047001.8,N
1512298455.9,286047002.1,N
1512298475.7,286047002.4,N
1512298495.5,286047002.2,N
1512298515.4,286047001.7,N
1512298535.2,286047002.5,N
1512298555.1,286047004.4,Y
1512298556.0,286047004.4,P
1512298575.8,286047002.0,N
1512298595.6,286047001.7,N
1512298615.5,286047001.3,N
1512298635.3,286047000.1,N
1512298655.2,286047001.8,N
1512298675.9,286047002.1,N
1512298695.7,286047001.9,N
1512298715.6,286047002.0,N
1512298735.4,286046999.7,N
1512298755.2,286047002.3,N
1512298775.1,286047000.9,N
1512298776.0,286047000.9,N
1512298795.8,286047002.6,N
